Find Starlink 30288

NORAD ID: 57698 Int'l Des: 2023-129 Owner: SPXS Country: US Constellation: starlink operational
LEOCIRCULAR

当前视图

正在加载3D地球...

About Starlink 30288

Starlink 30288 (NORAD 57698) is a starlink constellation satellite (v2 mini) launched Aug 27, 2023 by SPXS of US. It operates in LEO, CIRCULAR orbit with a mass of 730.00 kg.

即将过境

Passes for default location (London). Set your location on the main map for personalized predictions.

高度历史

Loading altitude history...

两行轨道根数

1 57698U 23129A 26237.29195128 .00000627 00000-0 32328-4 0 9996
2 57698 43.0024 246.1106 0001874 278.4475 81.6165 15.27576980166467
Epoch: Aug 25, 2026 • Age: 6 hours

当前状态

高度 491.8 km
远地点 / 近地点 N/A
速度 7.62 km/s
星下点 -34.24°S, 53.6°W
发射日期 Aug 27, 2023
运行时间 2.9 years
类型 internet

技术详情

分类 Payload
质量 730.00 kg
干质量 700.00 kg
总质量 730.00 kg
长度 0.30 m
直径 4.10 m
跨度 29.00 m
形状 Box + pan
制造商 SPXS
平台类型 Starlink V2M
阶段状态 In Orbit
所有者/国家 SPXS/US

Most Searched